Regional Weather Roundup
Issued by NWS

Home | Current Version | Previous Version | Graphics & Text | Print | Product List | Glossary On
Versions: 1 2 3 4 5 6 7 8 9 10 11 12 13 14 15 16 17 18 19 20 21 22 23 24 25 26 27 28 29 30 31 32 33 34 35 36 37 38 39 40 41 42 43 44 45 46 47 48 49 50
960
ASUS44 KJAN 221703
RWRMS

MISSISSIPPI HOURLY WEATHER ROUNDUP
NATIONAL WEATHER SERVICE JACKSON MS
1200 PM CDT TUE APR 22 2014

NOTE: "FAIR: INDICATES FEW OR NO CLOUDS BELOW 12,000 FEET WITH NO
SIGNIFICANT WEATHER AND/OR OBSTRUCTIONS TO VISIBILITY.

MSZ001>002-007>008-010>013-018>021-025>028-034>036-221800-
NORTHWEST MISSISSIPPI

CITY           SKY/WX    TMP DP  RH WIND       PRES   REMARKS
CLARKSDALE       N/A     70  64  83 N8        29.97S
CLEVELAND      CLOUDY    70  66  88 N9        29.96S
GREENWOOD      PTSUNNY   71  62  73 VRB7      29.95S
GREENVILLE     PTSUNNY   73  65  75 N12       29.96S
GRENADA        CLOUDY    70  61  73 NW6       29.95S
OLIVE BRANCH   CLOUDY    66  64  94 N12       29.96S
OXFORD           N/A     68  59  73 NW7       29.96F
TUNICA         CLOUDY    68  61  77 N14       29.97F
$$

MSZ003>006-009-014>017-022>024-029>033-037>039-221800-
NORTHEAST MISSISSIPPI

CITY           SKY/WX    TMP DP  RH WIND       PRES   REMARKS
BELMONT        CLOUDY    67  61  83 SW5       29.93F
COLUMBUS AFB   CLOUDY    68  61  77 NW6       29.93F
CORINTH        CLOUDY    66  61  82 N6        29.93F
GOLDN TRIANGLE CLOUDY    68  61  77 SW5       29.97F
STARKVILLE     CLOUDY    66  61  82 CALM      29.94F
TUPELO         CLOUDY    70  61  73 MISG      29.93F
$$

MSZ040-058-221800-
CENTRAL MISSISSIPPI

CITY           SKY/WX    TMP DP  RH WIND       PRES   REMARKS
JACKSON INTL   CLOUDY    68  64  87 NW5       29.95S
JACKSON HAWKNS CLOUDY    68  62  81 NW5       29.96S
MERIDIAN KEY   LGT RAIN  64  62  93 CALM      29.95S FOG
MERIDIAN NAS   RAIN      63  61  93 SW3       29.96S FOG
RAYMOND        CLOUDY    68  63  83 NW7       29.96S
VICKSBURG      PTSUNNY   72  62  71 N8        29.96F
$$

MSZ059>079-221800-
SOUTH MISSISSIPPI

CITY           SKY/WX    TMP DP  RH WIND       PRES   REMARKS
BROOKHAVEN     RAIN      68  64  88 W7        29.98S
HATTIESBURG    CLOUDY    68  64  87 VRB5      29.97F
MCCOMB         CLOUDY    69  65  86 W5        29.97S
NATCHEZ        CLOUDY    70  63  78 N8        29.98S
PINE BELT      CLOUDY    66  61  82 SW6       29.97F
$$

MSZ080>082-221800-
COASTAL MISSISSIPPI

CITY           SKY/WX    TMP DP  RH WIND       PRES   REMARKS
BAY ST LOUIS   CLOUDY   N/A N/A N/A W12       29.97S
BILOXI         SUNNY     74  65  73 SW12      29.95F
PASCAGOULA     SUNNY     77  59  53 VRB6      29.94F
GULFPORT       PTSUNNY   77  61  57 SW7       29.95F
$$



USA.gov is the U.S. government's official web portal to all federal, state and local government web resources and services.